Regional Weather Roundup
Issued by NWS

Home | Current Version | Previous Version | Text Only | Print | Product List | Glossary Off
Versions: 1 2 3 4 5 6 7 8 9 10 11 12 13 14 15 16 17 18 19 20 21 22 23 24 25 26 27 28 29 30 31 32 33 34 35 36 37 38 39 40 41 42 43 44 45 46 47 48 49 50

000
ASUS43 KDTX 232001
RWRMI
MICHIGAN HOURLY REGIONAL WEATHER ROUNDUP
NATIONAL WEATHER SERVICE DETROIT/PONTIAC MI
300 PM EST THU NOV 23 2017

NOTE: "FAIR" INDICATES FEW OR NO CLOUDS BELOW 12,000 FEET WITH NO
SIGNIFICANT WEATHER AND/OR OBSTRUCTION TO VISIBILITY.

MIZ047>049-052>055-059>063-066>070-074>076-081>083-232100-
SOUTHEAST LOWER MICHIGAN

CITY           SKY/WX    TMP DP  RH WIND       PRES   REMARKS
ADRIAN         MOSUNNY   38  23  55 SW10      29.97F WCI  31
ALMA           CLOUDY    41  27  57 SW8       29.89F
ANN ARBOR      MOSUNNY   38  24  57 S12       29.95F WCI  30
BAD AXE        CLOUDY    37  25  62 SW10G17   29.89F WCI  29
CARO           CLOUDY    37  25  61 SW10G17   29.90F WCI  30
DETROIT CITY   CLOUDY    38  22  52 SW14      29.97F WCI  30
DETROIT        MOSUNNY   40  22  48 SW16      29.98F WCI  31
FLINT          CLOUDY    38  20  48 S7        29.92F WCI  33
GROSSE ILE     CLOUDY    39  25  57 SW8       29.98F WCI  34
HILLSDALE      SUNNY     37  21  52 S8        29.94F WCI  31
HOWELL         SUNNY     40  20  45 SW10      29.91F WCI  34

CITY           SKY/WX    TMP DP  RH WIND       PRES   REMARKS
JACKSON        SUNNY     41  19  41 S12       29.94F
LAMBERTVILLE   MOSUNNY   41  24  51 SW7       29.99F
LANSING        SUNNY     41  19  41 SW14      29.92F
LAPEER         CLOUDY    37  23  57 SW10      29.91F WCI  29
MASON          SUNNY     42  19  40 SW9       29.92F
MONROE         MOSUNNY   40  24  52 SW9       29.98F WCI  34
MT. CLEMENS    CLOUDY    37  24  60 SW10      29.94F WCI  30
PONTIAC        CLOUDY    37  23  56 S8        29.92F WCI  31
PORT HOPE        N/A     37  24  59 VRB7      29.87F WCI  32
PORT HURON     CLOUDY    36  23  60 S9        29.95F WCI  29
TRI CITIES     CLOUDY    38  27  64 SW14      29.89F WCI  30
MIDLAND        CLOUDY    39  27  61 SW7       29.88F WCI  34
TROY           CLOUDY    39  23  52 S9        29.96F WCI  33
SAGINAW HB     CLOUDY    37  27  65 SW12      29.89F WCI  30
$$
MIZ043>046-050>051-056>058-064>065-071>073-077>080-232100-
SOUTHWEST LOWER MICHIGAN

CITY           SKY/WX    TMP DP  RH WIND       PRES   REMARKS
BATTLE CREEK   SUNNY     41  22  46 SW13      29.93F
BENTON HARBOR  SUNNY     46  21  37 S8        29.93F
BIG RAPIDS     CLOUDY    40  26  57 W9G22     29.86F WCI  34
COLDWATER      SUNNY     41  18  40 SW12      29.95F
FREMONT        CLOUDY    40  28  62 SW12      29.88F WCI  33
HOLLAND        CLOUDY    43  29  57 SW16      29.93F
GRAND RAPIDS   PTSUNNY   44  27  51 SW9       29.91F
IONIA          FAIR      42  22  45 SW9G17    29.90F
KALAMAZOO      SUNNY     42  18  37 SW12      29.93F
LUDINGTON      SUNNY     39  26  60 W9G16     29.89S WCI  33
MARSHALL       SUNNY     40  17  39 SW10G16   29.93F WCI  34
MOUNT PLEASANT CLOUDY    42  27  54 SW10      29.86F
MUSKEGON       CLOUDY    42  28  57 SW14      29.91F
SOUTH HAVEN    SUNNY     44  22  40 SW13      29.93S
$$
MIZ016>042-232100-
NORTHERN LOWER MICHIGAN

CITY           SKY/WX    TMP DP  RH WIND       PRES   REMARKS
ALPENA         CLOUDY    39  26  59 W7        29.84F WCI  34
BEAVER ISLAND  PTSUNNY   38  26  64 W18       29.84S WCI  28
BELLAIRE       CLOUDY    38  29  69 W6        29.86S WCI  34
CADILLAC       SUNNY     38  25  57 SW16      29.84R WCI  30
CHARLEVOIX     CLOUDY    38  28  68 W14G24    29.87S WCI  29
FRANKFORT      MOSUNNY   40  26  56 SW9       29.88S WCI  34
GAYLORD        CLOUDY    35  24  64 W14       29.82R WCI  26
GRAYLING       CLOUDY    39  24  53 W10       29.83S WCI  32
HARBOR SPRINGS CLOUDY    37  29  70 SW15G23   29.83R WCI  28
HOUGHTON LAKE  MOSUNNY   40  25  55 SW9G18    29.84F WCI  34
MANISTEE       SUNNY     40  26  57 SW12      29.88S WCI  33
OSCODA         PTSUNNY   40  23  50 W13       29.85F WCI  32
PELLSTON       CLOUDY    37  27  67 W12G18    29.84R WCI  29
ROGERS CITY    CLOUDY    37  27  66 W10G20    29.83S WCI  30
TRAVERSE CITY  CLOUDY    40  24  53 W13       29.86R WCI  32
$$
MIZ007>008-015-232100-
EASTERN UPPER MICHIGAN

CITY           SKY/WX    TMP DP  RH WIND       PRES   REMARKS
KINROSS        CLOUDY    34  22  61 W17G23    29.81S WCI  23
MACKINAC ISLAN CLOUDY    37  27  66 W22G28    29.81S WCI  26
NEWBERRY       CLOUDY    31  24  75 W10G18    29.82S WCI  22
S. S. MARIE    CLOUDY    33  24  69 W12       29.80S WCI  24
MUNISING         N/A     36  25  64 N6        29.82S WCI  31
$$
MIZ004>006-011>014-085-232100-
CENTRAL UPPER MICHIGAN

CITY           SKY/WX    TMP DP  RH WIND       PRES   REMARKS
MANISTIQUE     SUNNY     38  11  33 W7        29.83S WCI  33
ESCANABA       SUNNY     40  22  48 SW8       29.83F WCI  34
MENOMINEE      SUNNY     40  20  44 W7        29.86
SAWYER-GWINN   PTSUNNY   36  21  55 W6        29.80S WCI  31
$$
MIZ001>003-009>011-084-232100-
WESTERN UPPER MICHIGAN

CITY           SKY/WX    TMP DP  RH WIND       PRES   REMARKS
IRON MOUNTAIN  SUNNY     40  20  44 W7        29.80F
HOUGHTON       CLOUDY    33  26  75 W12       29.79S WCI  24
COPPER HARBOR    N/A     35  26  69 NW10      29.79F WCI  27
IRONWOOD       SUNNY     37  22  54 W5        29.81F WCI  33
$$

ABBREVIATIONS USED IN REMARKS
   TC - TEMPERATURE IN CELSIUS
  WCI - WIND CHILL INDEX
   HX - HEAT INDEX
  VSB - VISIBILITY





USA.gov is the U.S. government's official web portal to all federal, state and local government web resources and services.